{"data":{"norad_id":60345,"epoch":"2026-09-21T22:35:46.292064Z","epoch_age_seconds":61038,"freshness":"FRESH","line1":"1 60345U 24136S   26264.94150801 -.00001344  00000+0 -28680-4 0  9993","line2":"2 60345  53.1579 243.2363 0000945  80.9714 279.1396 15.34385422119724","mean_motion":15.34385422,"eccentricity":9.45e-5,"inclination_deg":53.1579,"raan_deg":243.2363,"arg_perigee_deg":80.9714,"mean_anomaly_deg":279.1396,"bstar":-2.868e-5,"rev_number":11972,"period_min":93.848649716903,"perigee_km":462.10010594102,"apogee_km":463.39303293564,"semimajor_km":6840.8835694383,"source":"CELESTRAK","updated_at":"2026-09-22T09:00:49.222044Z"}}